Location: Gand�
(15.0971°N, 12.6564°W)
Time: 15:14:48
(UTC+00:00)

CZ-4B R/B - Pass Details

Date: 07 August 2020
Orbit: 391 x 463 km, 97.6° (Epoch: 20 September)

Event Time Altitude Azimuth Distance (km) Brightness Sun altitude
Rises 05:23:18 0° 164° (SSE) 2,461 5.1 -17.1°
Reaches altitude 10° 05:25:21 10° 161° (SSE) 1,581 4.1 -16.6°
Maximum altitude 05:28:43 68° 78° (ENE) 483 1.7 -15.8°
Drops below altitude 10° 05:32:01 10° 355° (N) 1,549 4.3 -15.1°
Sets 05:34:01 0° 353° (N) 2,405 5.3 -14.7°
